Time,TemperatureF,DewpointF,PressureIn,WindDirection,WindDirectionDegrees,WindSpeedMPH,WindSpeedGustMPH,Humidity,HourlyPrecipIn,Conditions,Clouds,dailyrainin,SoftwareType,DateUTC
2013-10-27 00:09:00,48.6,47.2,29.99,West,270,0.0,-999.0,95,-99.99,,,0.00,Acu-Link.com,2013-10-27 05:09:00,
2013-10-27 00:24:00,48.6,47.2,29.99,WSW,247,0.0,-999.0,95,-99.99,,,0.00,Acu-Link.com,2013-10-27 05:24:00,
2013-10-27 00:39:00,48.4,46.8,29.99,SW,225,0.0,-999.0,94,-99.99,,,0.00,Acu-Link.com,2013-10-27 05:39:00,
2013-10-27 00:55:00,48.4,47.0,29.99,SW,225,0.0,-999.0,95,-99.99,,,0.00,Acu-Link.com,2013-10-27 05:55:00,
2013-10-27 01:10:00,48.2,47.1,29.99,NNW,337,0.0,-999.0,96,-99.99,,,0.00,Acu-Link.com,2013-10-27 06:10:00,
2013-10-27 01:25:00,48.4,47.3,29.99,West,270,0.0,-999.0,96,-99.99,,,0.00,Acu-Link.com,2013-10-27 06:25:00,
2013-10-27 01:40:00,48.4,47.6,29.98,WNW,292,0.0,-999.0,97,-99.99,,,0.00,Acu-Link.com,2013-10-27 06:40:00,
2013-10-27 01:56:00,48.2,46.6,29.98,NNW,337,1.7,-999.0,94,-99.99,,,0.00,Acu-Link.com,2013-10-27 06:56:00,
2013-10-27 02:11:00,48.2,46.0,29.99,West,270,1.7,-999.0,92,-99.99,,,0.00,Acu-Link.com,2013-10-27 07:11:00,
2013-10-27 02:26:00,48.0,44.9,29.98,NW,315,0.0,-999.0,89,-99.99,,,0.00,Acu-Link.com,2013-10-27 07:26:00,
2013-10-27 02:41:00,48.0,44.9,29.98,West,270,0.0,-999.0,89,-99.99,,,0.00,Acu-Link.com,2013-10-27 07:41:00,
2013-10-27 02:56:00,47.7,44.0,29.98,SE,135,0.0,-999.0,87,-99.99,,,0.00,Acu-Link.com,2013-10-27 07:56:00,
2013-10-27 03:11:00,46.9,44.4,29.99,WNW,292,0.0,-999.0,91,-99.99,,,0.00,Acu-Link.com,2013-10-27 08:11:00,
2013-10-27 03:26:00,46.8,44.3,29.99,WNW,292,0.0,-999.0,91,-99.99,,,0.00,Acu-Link.com,2013-10-27 08:26:00,
2013-10-27 03:41:00,46.2,43.7,29.98,WNW,292,0.0,-999.0,91,-99.99,,,0.00,Acu-Link.com,2013-10-27 08:41:00,
2013-10-27 03:56:00,46.0,43.8,29.98,NW,315,0.0,-999.0,92,-99.99,,,0.00,Acu-Link.com,2013-10-27 08:56:00,
2013-10-27 04:12:00,45.7,43.5,29.98,ESE,112,0.0,-999.0,92,-99.99,,,0.00,Acu-Link.com,2013-10-27 09:12:00,
2013-10-27 04:27:00,45.1,43.2,29.97,West,270,0.0,-999.0,93,-99.99,,,0.00,Acu-Link.com,2013-10-27 09:27:00,
2013-10-27 04:42:00,44.2,42.6,29.98,WSW,247,0.0,-999.0,94,-99.99,,,0.00,Acu-Link.com,2013-10-27 09:42:00,
2013-10-27 04:57:00,43.9,42.0,29.97,WSW,247,0.0,-999.0,93,-99.99,,,0.00,Acu-Link.com,2013-10-27 09:57:00,
2013-10-27 05:12:00,42.6,39.9,29.96,WSW,247,0.0,-999.0,90,-99.99,,,0.00,Acu-Link.com,2013-10-27 10:12:00,
2013-10-27 05:27:00,42.1,38.8,29.96,NE,45,0.0,-999.0,88,-99.99,,,0.00,Acu-Link.com,2013-10-27 10:27:00,
2013-10-27 05:42:00,42.6,38.4,29.96,NNE,22,0.0,-999.0,85,-99.99,,,0.00,Acu-Link.com,2013-10-27 10:42:00,
2013-10-27 05:58:00,42.3,39.6,29.96,WNW,292,0.0,-999.0,90,-99.99,,,0.00,Acu-Link.com,2013-10-27 10:58:00,
2013-10-27 06:13:00,41.7,39.3,29.96,ESE,112,0.0,-999.0,91,-99.99,,,0.00,Acu-Link.com,2013-10-27 11:13:00,
2013-10-27 06:28:00,40.6,37.9,29.96,NNW,337,0.0,-999.0,90,-99.99,,,0.00,Acu-Link.com,2013-10-27 11:28:00,
2013-10-27 06:43:00,40.6,37.9,29.95,NW,315,0.0,-999.0,90,-99.99,,,0.00,Acu-Link.com,2013-10-27 11:43:00,
2013-10-27 06:58:00,40.1,37.4,29.95,SE,135,0.0,-999.0,90,-99.99,,,0.00,Acu-Link.com,2013-10-27 11:58:00,
2013-10-27 07:13:00,39.6,38.0,29.96,West,270,0.0,-999.0,94,-99.99,,,0.00,Acu-Link.com,2013-10-27 12:13:00,
2013-10-27 07:28:00,39.7,37.8,29.95,West,270,0.0,-999.0,93,-99.99,,,0.00,Acu-Link.com,2013-10-27 12:28:00,
2013-10-27 07:43:00,39.2,37.3,29.96,West,270,0.0,-999.0,93,-99.99,,,0.00,Acu-Link.com,2013-10-27 12:43:00,
2013-10-27 07:59:00,39.4,37.8,29.96,West,270,0.0,-999.0,94,-99.99,,,0.00,Acu-Link.com,2013-10-27 12:59:00,
2013-10-27 08:14:00,41.0,39.1,29.97,NW,315,0.0,-999.0,93,-99.99,,,0.00,Acu-Link.com,2013-10-27 13:14:00,
2013-10-27 08:29:00,44.8,41.8,29.97,ENE,67,0.0,-999.0,89,-99.99,,,0.00,Acu-Link.com,2013-10-27 13:29:00,
2013-10-27 08:44:00,45.9,41.6,29.97,SE,135,0.0,-999.0,85,-99.99,,,0.00,Acu-Link.com,2013-10-27 13:44:00,
2013-10-27 08:59:00,46.0,41.7,29.97,East,90,0.0,-999.0,85,-99.99,,,0.00,Acu-Link.com,2013-10-27 13:59:00,
2013-10-27 09:15:00,46.4,41.5,29.97,SSE,157,2.7,-999.0,83,-99.99,,,0.00,Acu-Link.com,2013-10-27 14:15:00,
2013-10-27 09:30:00,47.3,42.1,29.97,SE,135,0.0,-999.0,82,-99.99,,,0.00,Acu-Link.com,2013-10-27 14:30:00,
2013-10-27 09:45:00,48.4,43.2,29.98,ESE,112,0.0,-999.0,82,-99.99,,,0.00,Acu-Link.com,2013-10-27 14:45:00,
2013-10-27 10:00:00,50.7,44.4,29.98,SSE,157,0.0,-999.0,79,-99.99,,,0.00,Acu-Link.com,2013-10-27 15:00:00,
2013-10-27 10:15:00,51.6,45.3,29.98,NE,45,2.2,-999.0,79,-99.99,,,0.00,Acu-Link.com,2013-10-27 15:15:00,
2013-10-27 10:31:00,54.7,46.6,29.98,West,270,0.0,-999.0,74,-99.99,,,0.00,Acu-Link.com,2013-10-27 15:31:00,
2013-10-27 10:46:00,55.8,47.6,29.98,SSE,157,2.2,-999.0,74,-99.99,,,0.00,Acu-Link.com,2013-10-27 15:46:00,
2013-10-27 11:01:00,57.9,48.9,29.98,ESE,112,1.7,-999.0,72,-99.99,,,0.00,Acu-Link.com,2013-10-27 16:01:00,
2013-10-27 11:16:00,58.6,49.6,29.98,NNE,22,2.7,-999.0,72,-99.99,,,0.00,Acu-Link.com,2013-10-27 16:16:00,
2013-10-27 11:31:00,60.1,50.3,29.98,West,270,2.2,-999.0,70,-99.99,,,0.00,Acu-Link.com,2013-10-27 16:31:00,
2013-10-27 11:46:00,59.5,50.1,29.97,SSE,157,2.7,-999.0,71,-99.99,,,0.00,Acu-Link.com,2013-10-27 16:46:00,
2013-10-27 12:01:00,59.0,49.6,29.97,West,270,0.0,-999.0,71,-99.99,,,0.00,Acu-Link.com,2013-10-27 17:01:00,
2013-10-27 12:16:00,59.0,49.2,29.96,WNW,292,0.0,-999.0,70,-99.99,,,0.00,Acu-Link.com,2013-10-27 17:16:00,
2013-10-27 12:32:00,59.5,48.5,29.96,West,270,1.7,-999.0,67,-99.99,,,0.00,Acu-Link.com,2013-10-27 17:32:00,
2013-10-27 12:47:00,58.5,48.0,29.95,WSW,247,0.0,-999.0,68,-99.99,,,0.00,Acu-Link.com,2013-10-27 17:47:00,
2013-10-27 13:02:00,58.1,46.0,29.95,West,270,0.0,-999.0,64,-99.99,,,0.00,Acu-Link.com,2013-10-27 18:02:00,
2013-10-27 13:17:00,58.6,44.8,29.94,West,270,0.0,-999.0,60,-99.99,,,0.00,Acu-Link.com,2013-10-27 18:17:00,
2013-10-27 13:32:00,61.2,45.4,29.93,SW,225,0.0,-999.0,56,-99.99,,,0.00,Acu-Link.com,2013-10-27 18:32:00,
2013-10-27 13:47:00,62.4,44.0,29.92,West,270,1.1,-999.0,51,-99.99,,,0.00,Acu-Link.com,2013-10-27 18:47:00,
2013-10-27 14:02:00,62.8,43.4,29.92,SW,225,2.2,-999.0,49,-99.99,,,0.00,Acu-Link.com,2013-10-27 19:02:00,
2013-10-27 14:17:00,61.3,42.0,29.91,SW,225,1.7,-999.0,49,-99.99,,,0.00,Acu-Link.com,2013-10-27 19:17:00,
2013-10-27 14:33:00,61.7,41.3,29.91,West,270,2.2,-999.0,47,-99.99,,,0.00,Acu-Link.com,2013-10-27 19:33:00,
2013-10-27 14:48:00,62.1,40.5,29.90,NNW,337,1.7,-999.0,45,-99.99,,,0.00,Acu-Link.com,2013-10-27 19:48:00,
2013-10-27 15:03:00,62.8,39.4,29.90,WNW,292,0.0,-999.0,42,-99.99,,,0.00,Acu-Link.com,2013-10-27 20:03:00,
2013-10-27 15:19:00,63.0,34.9,29.90,WNW,292,0.0,-999.0,35,-99.99,,,0.00,Acu-Link.com,2013-10-27 20:19:00,
2013-10-27 15:34:00,64.4,36.2,29.90,South,180,0.0,-999.0,35,-99.99,,,0.00,Acu-Link.com,2013-10-27 20:34:00,
2013-10-27 15:49:00,63.7,34.8,29.90,WSW,247,1.7,-999.0,34,-99.99,,,0.00,Acu-Link.com,2013-10-27 20:49:00,
2013-10-27 16:04:00,63.7,34.8,29.89,West,270,0.0,-999.0,34,-99.99,,,0.00,Acu-Link.com,2013-10-27 21:04:00,
2013-10-27 16:19:00,63.5,36.8,29.89,NNW,337,0.0,-999.0,37,-99.99,,,0.00,Acu-Link.com,2013-10-27 21:19:00,
2013-10-27 16:35:00,62.6,37.3,29.89,NW,315,0.0,-999.0,39,-99.99,,,0.00,Acu-Link.com,2013-10-27 21:35:00,
2013-10-27 16:50:00,62.2,36.9,29.88,SSW,202,0.0,-999.0,39,-99.99,,,0.00,Acu-Link.com,2013-10-27 21:50:00,
2013-10-27 17:05:00,60.8,38.2,29.88,NNW,337,0.0,-999.0,43,-99.99,,,0.00,Acu-Link.com,2013-10-27 22:05:00,
2013-10-27 17:21:00,59.7,39.4,29.88,NNW,337,0.0,-999.0,47,-99.99,,,0.00,Acu-Link.com,2013-10-27 22:21:00,
2013-10-27 17:36:00,59.0,39.9,29.87,ESE,112,0.0,-999.0,49,-99.99,,,0.00,Acu-Link.com,2013-10-27 22:36:00,
2013-10-27 17:51:00,57.7,41.2,29.87,NNW,337,0.0,-999.0,54,-99.99,,,0.00,Acu-Link.com,2013-10-27 22:51:00,
2013-10-27 18:07:00,56.1,41.1,29.87,SE,135,0.0,-999.0,57,-99.99,,,0.00,Acu-Link.com,2013-10-27 23:07:00,
2013-10-27 18:22:00,54.3,42.8,29.87,SE,135,0.0,-999.0,65,-99.99,,,0.00,Acu-Link.com,2013-10-27 23:22:00,
2013-10-27 18:37:00,52.2,43.4,29.87,SE,135,0.0,-999.0,72,-99.99,,,0.00,Acu-Link.com,2013-10-27 23:37:00,
2013-10-27 18:52:00,50.4,43.1,29.88,SE,135,0.0,-999.0,76,-99.99,,,0.00,Acu-Link.com,2013-10-27 23:52:00,
2013-10-27 19:08:00,48.9,42.3,29.88,SE,135,0.0,-999.0,78,-99.99,,,0.00,Acu-Link.com,2013-10-28 00:08:00,
2013-10-27 19:23:00,47.8,41.9,29.88,SE,135,0.0,-999.0,80,-99.99,,,0.00,Acu-Link.com,2013-10-28 00:23:00,
2013-10-27 19:38:00,46.8,41.6,29.88,SE,135,0.0,-999.0,82,-99.99,,,0.00,Acu-Link.com,2013-10-28 00:38:00,
2013-10-27 19:54:00,45.7,41.1,29.89,SE,135,0.0,-999.0,84,-99.99,,,0.00,Acu-Link.com,2013-10-28 00:54:00,
2013-10-27 20:09:00,45.0,41.1,29.89,SE,135,0.0,-999.0,86,-99.99,,,0.00,Acu-Link.com,2013-10-28 01:09:00,
2013-10-27 20:24:00,44.4,40.5,29.88,SE,135,0.0,-999.0,86,-99.99,,,0.00,Acu-Link.com,2013-10-28 01:24:00,
2013-10-27 20:39:00,43.2,40.5,29.89,ESE,112,0.0,-999.0,90,-99.99,,,0.00,Acu-Link.com,2013-10-28 01:39:00,
2013-10-27 20:54:00,43.0,40.3,29.90,ESE,112,0.0,-999.0,90,-99.99,,,0.00,Acu-Link.com,2013-10-28 01:54:00,
2013-10-27 21:10:00,42.4,39.7,29.90,ESE,112,0.0,-999.0,90,-99.99,,,0.00,Acu-Link.com,2013-10-28 02:10:00,
2013-10-27 21:25:00,42.3,39.9,29.90,ESE,112,0.0,-999.0,91,-99.99,,,0.00,Acu-Link.com,2013-10-28 02:25:00,
2013-10-27 21:40:00,41.9,39.7,29.90,ESE,112,0.0,-999.0,92,-99.99,,,0.00,Acu-Link.com,2013-10-28 02:40:00,
2013-10-27 21:55:00,41.7,40.1,29.90,ESE,112,0.0,-999.0,94,-99.99,,,0.00,Acu-Link.com,2013-10-28 02:55:00,
2013-10-27 22:10:00,41.5,39.9,29.90,ESE,112,0.0,-999.0,94,-99.99,,,0.00,Acu-Link.com,2013-10-28 03:10:00,
2013-10-27 22:26:00,41.5,40.2,29.91,ESE,112,0.0,-999.0,95,-99.99,,,0.00,Acu-Link.com,2013-10-28 03:26:00,
2013-10-27 22:41:00,41.2,40.1,29.91,ESE,112,0.0,-999.0,96,-99.99,,,0.00,Acu-Link.com,2013-10-28 03:41:00,
2013-10-27 22:56:00,41.4,40.3,29.91,ESE,112,0.0,-999.0,96,-99.99,,,0.00,Acu-Link.com,2013-10-28 03:56:00,
2013-10-27 23:12:00,41.2,40.1,29.92,ESE,112,0.0,-999.0,96,-99.99,,,0.00,Acu-Link.com,2013-10-28 04:12:00,
2013-10-27 23:27:00,41.2,40.1,29.92,ESE,112,0.0,-999.0,96,-99.99,,,0.00,Acu-Link.com,2013-10-28 04:27:00,
2013-10-27 23:42:00,41.2,40.4,29.92,SE,135,0.0,-999.0,97,-99.99,,,0.00,Acu-Link.com,2013-10-28 04:42:00,
2013-10-27 23:57:00,41.2,40.4,29.92,SE,135,0.0,-999.0,97,-99.99,,,0.00,Acu-Link.com,2013-10-28 04:57:00,